Location: Stonelick Lake State Park
(39.2170°N, 84.0850°W)
Time: 06:19:35
(UTC-04:00)

Amateur Radio Satellites - All Passes

Search period start: 24 October 2014 05:49
Search period end: 25 October 2014 05:49
Location: Stonelick Lake State Park, 39.2170°N, 84.0850°W

Satellite Date Start Highest point End Downlink Frequencies (MHz)
Time Altitude Azimuth
Sapphire 24 Oct 05:55:29 06:00:27 36° 306° (NW) 06:05:28 437.095 MHz 1200 baud AX-25 AFSK
Uosat F 24 Oct 05:59:39 06:04:42 68° 102° (ESE) 06:09:43 435.120 FM
JAS-2 24 Oct 06:06:35 06:13:14 30° 93° (E) 06:19:49 435.800 - 435.900 CW/SSB, 435.910 FM
Hamsat 24 Oct 06:11:59 06:12:17 10° 90° (E) 06:12:36 145.90 MHz
PCSat 24 Oct 06:19:07 06:23:24 23° 311° (NW) 06:27:42 145.825 MHz
AO-7 24 Oct 06:19:12 06:27:34 86° 289° (WNW) 06:35:55 29.400 - 29.500 MHz
OPAL 24 Oct 06:43:05 06:47:41 32° 261° (W) 06:52:15 ?
STRAND 1 24 Oct 06:47:32 06:51:53 29° 67° (ENE) 06:56:15 ?
RS-15 24 Oct 07:14:30 07:25:06 46° 46° (NE) 07:36:03 29.354 - 29.394 USB, Beacon 29.352 USB
Uosat F 24 Oct 07:40:14 07:42:53 15° 299° (WNW) 07:45:32 435.120 FM
Hamsat 24 Oct 07:44:27 07:48:36 60° 285° (WNW) 07:52:45 145.90 MHz
JAS-2 24 Oct 07:50:54 07:58:28 58° 289° (WNW) 08:06:04 435.800 - 435.900 CW/SSB, 435.910 FM
SO-67 24 Oct 07:57:51 08:00:25 19° 95° (E) 08:02:57 435.3500 MHz FM
AO-7 24 Oct 08:13:46 08:19:12 20° 308° (NW) 08:24:38 29.400 - 29.500 MHz
STRAND 1 24 Oct 08:26:23 08:30:57 32° 263° (W) 08:35:34 ?
Saudisat 1A 24 Oct 08:38:26 08:42:48 82° 120° (ESE) 08:47:14 436.775 MHz
RS-15 24 Oct 09:26:56 09:37:43 56° 248° (WSW) 09:48:59 29.354 - 29.394 USB, Beacon 29.352 USB
SO-67 24 Oct 09:30:39 09:33:18 21° 290° (WNW) 09:35:55 435.3500 MHz FM
JAS-2 24 Oct 09:39:30 09:41:57 12° 307° (NW) 09:44:25 435.800 - 435.900 CW/SSB, 435.910 FM
MaSat-1 24 Oct 09:41:20 09:42:59 15° 56° (NE) 09:44:33 437.345 MHz
HO-68 24 Oct 09:47:24 09:53:39 31° 96° (E) 09:59:52 435.675 MHz FM
PANSAT 24 Oct 09:50:11 09:52:34 16° 176° (S) 09:54:58 not established
Saudisat 1A 24 Oct 10:20:45 10:22:57 13° 319° (NW) 10:25:09 436.775 MHz
ZACube-1 24 Oct 10:46:24 10:47:55 12° 90° (E) 10:49:25 437.345 MHz
UKube-1 24 Oct 10:50:49 10:54:52 36° 98° (E) 10:58:54 145.840 MHz, 145.915 MHz
MaSat-1 24 Oct 11:17:26 11:18:24 12° 255° (WSW) 11:19:21 437.345 MHz
FUNcube-1 24 Oct 11:29:16 11:33:14 37° 98° (E) 11:37:06 145.950 - 145.970 MHz USB
PANSAT 24 Oct 11:30:00 11:32:03 14° 189° (S) 11:34:06 not established
Oscar 11 24 Oct 11:32:45 11:37:04 77° 284° (WNW) 11:41:21 145.825 FM, Beacon 2401.500 USB
HO-68 24 Oct 11:34:40 11:41:30 48° 293° (WNW) 11:48:19 435.675 MHz FM
ZACube-1 24 Oct 12:20:31 12:24:40 52° 286° (WNW) 12:28:43 437.345 MHz
UKube-1 24 Oct 12:27:40 12:30:47 19° 294° (WNW) 12:33:53 145.840 MHz, 145.915 MHz
SO-50 24 Oct 12:31:14 12:31:35 10° 106° (ESE) 12:31:56 436.795 FM
KITSAT 1 24 Oct 12:39:09 12:46:49 50° 111° (ESE) 12:54:31 435.175 FM
Sapphire 24 Oct 13:01:22 13:05:35 22° 48° (NE) 13:09:46 437.095 MHz 1200 baud AX-25 AFSK
Oscar 19 24 Oct 13:06:05 13:09:20 17° 63° (ENE) 13:12:35 437.125 CW, 437.150 USB
FUNcube-1 24 Oct 13:06:29 13:09:18 17° 294° (WNW) 13:12:04 145.950 - 145.970 MHz USB
ISS 24 Oct 13:09:43 13:12:44 32° 135° (SE) 13:15:46 145.800 FM
PCSat 24 Oct 13:23:33 13:28:30 34° 53° (NE) 13:33:24 145.825 MHz
Oscar 10/S400 24 Oct 13:24:27 13:43:31 32° 152° (SSE) 14:00:51 145.825 - 145.975 CW/USB, Beacon 145.810 USB
AO-27 24 Oct 13:25:06 13:26:02 10° 58° (ENE) 13:26:57 436.795 MHz FM
Oscar 16 24 Oct 13:49:46 13:54:39 45° 71° (ENE) 13:59:33 437.025 USB, Beacon 2401.1428
AO-Echo 24 Oct 13:50:13 13:53:55 22° 65° (ENE) 13:57:42 ?
SO-50 24 Oct 14:06:55 14:11:24 77° 302° (WNW) 14:16:02 436.795 FM
Uribyol 2 24 Oct 14:08:59 14:13:26 29° 67° (ENE) 14:17:54 436.500 FM
JAS-1B 24 Oct 14:10:31 14:16:24 57° 72° (ENE) 14:21:57 435.800 - 435.900 CW/SSB
ITAMSAT 1 24 Oct 14:14:47 14:19:19 31° 68° (ENE) 14:23:52 435.822 SSB
Gurwin Techsat 1B 24 Oct 14:32:17 14:36:28 24° 66° (ENE) 14:40:39 435.225 FM
KITSAT 1 24 Oct 14:34:56 14:42:22 39° 311° (NW) 14:49:51 435.175 FM
Oscar 19 24 Oct 14:43:07 14:48:11 58° 259° (W) 14:53:16 437.125 CW, 437.150 USB
TMSAT-1 24 Oct 14:43:58 14:48:01 23° 65° (ENE) 14:52:05 436.925 FM
Sapphire 24 Oct 14:44:02 14:49:21 56° 247° (WSW) 14:54:38 437.095 MHz 1200 baud AX-25 AFSK
ISS 24 Oct 14:46:28 14:49:26 29° 331° (NNW) 14:52:24 145.800 FM
AO-27 24 Oct 14:59:28 15:04:40 83° 75° (ENE) 15:09:56 436.795 MHz FM
PCSat 24 Oct 15:07:03 15:11:50 32° 251° (WSW) 15:16:35 145.825 MHz
AO-7 24 Oct 15:26:36 15:33:00 26° 56° (NE) 15:39:25 29.400 - 29.500 MHz
AO-Echo 24 Oct 15:27:48 15:32:22 41° 262° (W) 15:37:07 ?
Oscar 16 24 Oct 15:30:23 15:34:11 21° 266° (W) 15:38:00 437.025 USB, Beacon 2401.1428
UOSAT-12 24 Oct 15:32:54 15:37:30 73° 119° (ESE) 15:42:12 437.025 FM, 437.400 FM
Uribyol 2 24 Oct 15:48:08 15:52:47 33° 263° (W) 15:57:28 436.500 FM
SO-50 24 Oct 15:51:05 15:52:47 12° 322° (NW) 15:54:29 436.795 FM
ITAMSAT 1 24 Oct 15:54:10 15:58:44 31° 264° (W) 16:03:20 435.822 SSB
JAS-1B 24 Oct 16:03:47 16:07:28 17° 267° (W) 16:11:03 435.800 - 435.900 CW/SSB
Gurwin Techsat 1B 24 Oct 16:11:10 16:16:09 42° 262° (W) 16:21:11 435.225 FM
TMSAT-1 24 Oct 16:22:36 16:27:38 44° 261° (W) 16:32:42 436.925 FM
ISS 24 Oct 16:25:58 16:26:59 11° 351° (N) 16:28:00 145.800 FM
KITSAT 1 24 Oct 16:37:35 16:40:29 12° 337° (NNW) 16:43:24 435.175 FM
AO-27 24 Oct 16:43:48 16:44:47 11° 271° (W) 16:45:47 436.795 MHz FM
Saudisat 1A 24 Oct 17:06:09 17:10:26 47° 54° (NE) 17:14:41 436.775 MHz
Uosat F 24 Oct 17:11:46 17:16:47 84° 75° (ENE) 17:21:51 435.120 FM
UOSAT-12 24 Oct 17:15:15 17:18:10 16° 318° (NW) 17:21:08 437.025 FM, 437.400 FM
AO-7 24 Oct 17:16:47 17:25:02 73° 254° (WSW) 17:33:20 29.400 - 29.500 MHz
JAS-2 24 Oct 18:01:41 18:07:26 60° 71° (ENE) 18:14:00 435.800 - 435.900 CW/SSB, 435.910 FM
ISS 24 Oct 18:03:35 18:04:54 12° 12° (NNE) 18:06:12 145.800 FM
Hamsat 24 Oct 18:36:19 18:40:32 81° 77° (ENE) 18:44:44 145.90 MHz
Saudisat 1A 24 Oct 18:46:44 18:49:37 17° 250° (WSW) 18:52:29 436.775 MHz
OPAL 24 Oct 18:53:23 18:58:21 72° 104° (ESE) 19:03:16 ?
AO-7 24 Oct 19:16:27 19:19:06 12° 272° (W) 19:21:45 29.400 - 29.500 MHz
ISS 24 Oct 19:39:16 19:42:22 35° 31° (NNE) 19:45:27 145.800 FM
JAS-2 24 Oct 19:48:58 19:53:08 20° 271° (W) 19:57:39 435.800 - 435.900 CW/SSB, 435.910 FM
SO-67 24 Oct 20:01:09 20:04:35 80° 260° (W) 20:08:02 435.3500 MHz FM
HO-68 24 Oct 20:16:04 20:21:17 22° 58° (ENE) 20:26:31 435.675 MHz FM
KITSAT 1 24 Oct 20:33:44 20:39:54 23° 39° (NE) 20:46:03 435.175 FM
OPAL 24 Oct 20:34:11 20:36:37 14° 301° (WNW) 20:39:02 ?
STRAND 1 24 Oct 20:37:21 20:42:32 88° 284° (WNW) 20:47:41 ?
SO-50 24 Oct 21:01:00 21:02:49 12° 38° (NE) 21:04:37 436.795 FM
AO-40 24 Oct 21:14:10 23:25:15 32° 210° (SSW) 03:56:11 Beacon 2401.320
ISS 24 Oct 21:16:09 21:18:57 25° 227° (SW) 21:21:45 145.800 FM
RS-15 24 Oct 21:39:19 21:47:54 27° 103° (ESE) 21:56:22 29.354 - 29.394 USB, Beacon 29.352 USB
ZACube-1 24 Oct 21:43:05 21:43:59 11° 62° (ENE) 21:44:52 437.345 MHz
UKube-1 24 Oct 21:45:25 21:49:08 28° 69° (ENE) 21:52:53 145.840 MHz, 145.915 MHz
HO-68 24 Oct 22:01:09 22:08:17 72° 256° (WSW) 22:15:29 435.675 MHz FM
STRAND 1 24 Oct 22:19:36 22:20:55 11° 301° (WNW) 22:22:13 ?
FUNcube-1 24 Oct 22:24:25 22:28:22 29° 70° (ENE) 22:32:16 145.950 - 145.970 MHz USB
Oscar 11 24 Oct 22:26:24 22:30:42 72° 76° (ENE) 22:35:01 145.825 FM, Beacon 2401.500 USB
KITSAT 1 24 Oct 22:28:19 22:36:27 88° 61° (ENE) 22:44:32 435.175 FM
SO-50 24 Oct 22:39:23 22:44:14 70° 57° (ENE) 22:49:06 436.795 FM
ZACube-1 24 Oct 23:15:07 23:19:43 79° 258° (WSW) 23:24:17 437.345 MHz
UKube-1 24 Oct 23:21:46 23:25:17 24° 264° (W) 23:28:50 145.840 MHz, 145.915 MHz
RS-15 24 Oct 23:48:05 23:59:06 76° 303° (WNW) 00:10:05 29.354 - 29.394 USB, Beacon 29.352 USB
HO-68 24 Oct 23:56:42 23:57:06 10° 273° (W) 23:57:31 435.675 MHz FM
FUNcube-1 25 Oct 00:00:51 00:04:40 26° 265° (W) 00:08:28 145.950 - 145.970 MHz USB
UOSAT-12 25 Oct 00:03:39 00:08:13 46° 53° (NE) 00:12:41 437.025 FM, 437.400 FM
SO-50 25 Oct 00:21:55 00:24:13 13° 253° (WSW) 00:26:30 436.795 FM
KITSAT 1 25 Oct 00:25:51 00:30:46 18° 259° (W) 00:35:41 435.175 FM
MaSat-1 25 Oct 00:50:52 00:55:00 63° 296° (WNW) 00:58:46 437.345 MHz
UOSAT-12 25 Oct 01:44:41 01:48:00 19° 250° (WSW) 01:51:16 437.025 FM, 437.400 FM
JAS-1B 25 Oct 01:54:58 01:59:34 18° 94° (E) 02:04:37 435.800 - 435.900 CW/SSB
Oscar 16 25 Oct 02:03:41 02:06:56 17° 92° (E) 02:10:10 437.025 USB, Beacon 2401.1428
RS-15 25 Oct 02:05:01 02:13:38 26° 331° (NNW) 02:22:21 29.354 - 29.394 USB, Beacon 29.352 USB
Uribyol 2 25 Oct 02:25:44 02:26:26 10° 89° (E) 02:27:07 436.500 FM
ITAMSAT 1 25 Oct 02:30:58 02:32:32 11° 89° (E) 02:34:06 435.822 SSB
Oscar 10/S400 25 Oct 02:32:04 03:26:37 17° 247° (WSW) 05:14:03 145.825 - 145.975 CW/USB, Beacon 145.810 USB
Oscar 19 25 Oct 02:55:45 03:00:46 54° 100° (E) 03:05:46 437.125 CW, 437.150 USB
AO-27 25 Oct 03:14:01 03:18:42 32° 97° (E) 03:23:21 436.795 MHz FM
AO-Echo 25 Oct 03:35:26 03:40:46 71° 102° (ESE) 03:46:03 ?
Oscar 16 25 Oct 03:41:36 03:46:36 54° 288° (WNW) 03:51:33 437.025 USB, Beacon 2401.1428
Sapphire 25 Oct 03:42:49 03:46:52 22° 106° (ESE) 03:50:55 437.095 MHz 1200 baud AX-25 AFSK
JAS-1B 25 Oct 03:43:45 03:50:28 78° 286° (WNW) 03:58:32 435.800 - 435.900 CW/SSB
Uribyol 2 25 Oct 04:01:17 04:06:31 84° 285° (WNW) 04:11:42 436.500 FM
PCSat 25 Oct 04:04:15 04:09:11 37° 110° (ESE) 04:14:09 145.825 MHz
ITAMSAT 1 25 Oct 04:07:21 04:12:35 79° 285° (WNW) 04:17:47 435.822 SSB
RS-15 25 Oct 04:24:50 04:31:37 18° 7° (N) 04:38:30 29.354 - 29.394 USB, Beacon 29.352 USB
Gurwin Techsat 1B 25 Oct 04:28:03 04:33:24 86° 104° (ESE) 04:38:43 435.225 FM
OPAL 25 Oct 04:31:22 04:34:04 15° 59° (ENE) 04:36:45 ?
Oscar 19 25 Oct 04:36:17 04:39:40 18° 297° (WNW) 04:43:02 437.125 CW, 437.150 USB
TMSAT-1 25 Oct 04:39:11 04:44:31 81° 103° (ESE) 04:49:49 436.925 FM
AO-27 25 Oct 04:53:37 04:58:06 30° 293° (WNW) 05:02:34 436.795 MHz FM
AO-Echo 25 Oct 05:15:56 05:18:54 15° 298° (WNW) 05:21:52 ?
JAS-2 25 Oct 05:16:00 05:17:28 11° 84° (E) 05:18:56 435.800 - 435.900 CW/SSB, 435.910 FM
AO-7 25 Oct 05:19:43 05:27:30 42° 100° (E) 05:35:16 29.400 - 29.500 MHz
Uosat F 25 Oct 05:21:05 05:25:24 28° 96° (E) 05:29:41 435.120 FM
Sapphire 25 Oct 05:24:41 05:29:54 49° 303° (WNW) 05:35:10 437.095 MHz 1200 baud AX-25 AFSK
JAS-1B 25 Oct 05:37:21 05:40:20 13° 301° (WNW) 05:43:30 435.800 - 435.900 CW/SSB
Uribyol 2 25 Oct 05:44:08 05:45:08 11° 302° (WNW) 05:46:07 436.500 FM
